| time (UTC) | temp C | wind direction | speed KPH | gust KPH | rain 1hr cm | rain 24hr cm | rain mn cm | humidity % | barometer mb |
| 20260504213837 | 25 | 220 | 4.8 | 6.4 | 0.00 | 0.05 | 0.05 | 43 | 1014.9 |
| 20260504213335 | 25 | 183 | 4.8 | 9.7 | 0.00 | 0.05 | 0.05 | 42 | 1014.9 |
| 20260504212838 | 25 | 179 | 6.4 | 9.7 | 0.00 | 0.05 | 0.05 | 41 | 1014.9 |
| 20260504212329 | 25 | 189 | 6.4 | 9.7 | 0.00 | 0.05 | 0.05 | 43 | 1015.0 |
| 20260504211830 | 25 | 181 | 6.4 | 14.5 | 0.00 | 0.05 | 0.05 | 41 | 1015.0 |
| 20260504211329 | 24 | 229 | 6.4 | 14.5 | 0.00 | 0.05 | 0.05 | 43 | 1015.0 |
| 20260504210830 | 24 | 213 | 6.4 | 12.9 | 0.00 | 0.05 | 0.05 | 44 | 1015.1 |
| 20260504210329 | 24 | 203 | 6.4 | 14.5 | 0.00 | 0.05 | 0.05 | 44 | 1015.1 |
| 20260504205829 | 24 | 203 | 6.4 | 14.5 | 0.00 | 0.05 | 0.05 | 43 | 1015.1 |
| 20260504205329 | 24 | 230 | 6.4 | 14.5 | 0.00 | 0.05 | 0.05 | 43 | 1015.4 |
| 20260504204830 | 24 | 192 | 4.8 | 14.5 | 0.00 | 0.05 | 0.05 | 43 | 1015.4 |
| 20260504204549 | 24 | 264 | 4.8 | 14.5 | 0.00 | 0.05 | 0.05 | 43 | 1015.4 |
| 20260504203829 | 24 | 183 | 4.8 | 9.7 | 0.00 | 0.05 | 0.05 | 45 | 1015.5 |
| 20260504203330 | 24 | 181 | 4.8 | 9.7 | 0.00 | 0.05 | 0.05 | 46 | 1015.5 |
| 20260504202829 | 23 | 211 | 6.4 | 12.9 | 0.00 | 0.05 | 0.05 | 45 | 1015.5 |
| 20260504202327 | 23 | 230 | 6.4 | 12.9 | 0.00 | 0.05 | 0.05 | 47 | 1015.7 |
| 20260504201827 | 23 | 271 | 4.8 | 17.7 | 0.00 | 0.05 | 0.05 | 48 | 1015.7 |
| 20260504201327 | 23 | 133 | 4.8 | 17.7 | 0.00 | 0.05 | 0.05 | 45 | 1015.7 |
| 20260504200828 | 23 | 288 | 6.4 | 14.5 | 0.00 | 0.05 | 0.05 | 47 | 1015.8 |
| 20260504200327 | 23 | 230 | 6.4 | 14.5 | 0.00 | 0.05 | 0.05 | 49 | 1015.8 |
| 20260504195827 | 23 | 276 | 6.4 | 12.9 | 0.00 | 0.05 | 0.05 | 48 | 1015.8 |
| 20260504195327 | 23 | 259 | 6.4 | 14.5 | 0.00 | 0.05 | 0.05 | 48 | 1016.3 |
| 20260504194827 | 23 | 170 | 4.8 | 14.5 | 0.00 | 0.05 | 0.05 | 47 | 1016.3 |
| 20260504194327 | 23 | 191 | 4.8 | 12.9 | 0.00 | 0.05 | 0.05 | 46 | 1016.3 |
| 20260504193827 | 23 | 218 | 4.8 | 11.3 | 0.00 | 0.05 | 0.05 | 49 | 1016.6 |
| 20260504193327 | 23 | 226 | 4.8 | 9.7 | 0.00 | 0.05 | 0.05 | 50 | 1016.6 |
| 20260504192827 | 23 | 256 | 4.8 | 11.3 | 0.00 | 0.05 | 0.05 | 49 | 1016.6 |
| 20260504192547 | 23 | 198 | 4.8 | 17.7 | 0.00 | 0.05 | 0.05 | 48 | 1016.9 |
| 20260504191827 | 22 | 271 | 6.4 | 17.7 | 0.00 | 0.05 | 0.05 | 49 | 1016.9 |
| 20260504191326 | 22 | 177 | 6.4 | 12.9 | 0.00 | 0.05 | 0.05 | 49 | 1016.9 |
| 20260504191048 | 22 | 219 | 6.4 | 16.1 | 0.00 | 0.05 | 0.05 | 49 | 1017.1 |
| 20260504190314 | 22 | 195 | 6.4 | 16.1 | 0.00 | 0.05 | 0.05 | 50 | 1017.1 |
| 20260504185815 | 22 | 259 | 4.8 | 12.9 | 0.00 | 0.05 | 0.05 | 50 | 1017.1 |
| 20260504185314 | 22 | 195 | 4.8 | 9.7 | 0.00 | 0.05 | 0.05 | 52 | 1017.2 |
| 20260504184814 | 21 | 203 | 4.8 | 9.7 | 0.00 | 0.05 | 0.05 | 49 | 1017.2 |
| 20260504184314 | 21 | 262 | 4.8 | 11.3 | 0.00 | 0.05 | 0.05 | 50 | 1017.2 |
| 20260504183811 | 21 | 236 | 6.4 | 11.3 | 0.00 | 0.05 | 0.05 | 52 | 1017.4 |
| 20260504183311 | 21 | 255 | 6.4 | 11.3 | 0.00 | 0.05 | 0.05 | 53 | 1017.4 |
| 20260504182813 | 21 | 203 | 4.8 | 12.9 | 0.00 | 0.05 | 0.05 | 52 | 1017.4 |
| 20260504182313 | 21 | 179 | 4.8 | 12.9 | 0.00 | 0.05 | 0.05 | 51 | 1017.6 |
| 20260504182016 | 20 | 270 | 6.4 | 16.1 | 0.00 | 0.05 | 0.05 | 51 | 1017.6 |
| 20260504181904 | 20 | 221 | 6.4 | 16.1 | 0.00 | 0.05 | 0.05 | 51 | 1017.6 |
| 20260504180809 | 20 | 169 | 6.4 | 14.5 | 0.00 | 0.05 | 0.05 | 50 | 1017.8 |
| 20260504180309 | 20 | 184 | 6.4 | 14.5 | 0.00 | 0.05 | 0.05 | 51 | 1017.8 |
| 20260504175809 | 20 | 186 | 3.2 | 12.9 | 0.00 | 0.05 | 0.05 | 52 | 1017.8 |
| 20260504175309 | 20 | 209 | 3.2 | 12.9 | 0.00 | 0.05 | 0.05 | 53 | 1017.9 |
| 20260504174809 | 20 | 251 | 4.8 | 9.7 | 0.00 | 0.05 | 0.05 | 53 | 1017.9 |
| 20260504174310 | 19 | 116 | 4.8 | 9.7 | 0.00 | 0.05 | 0.05 | 52 | 1017.9 |
| 20260504174031 | 19 | 194 | 4.8 | 9.7 | 0.00 | 0.05 | 0.05 | 54 | 1018.0 |
| 20260504173307 | 19 | 277 | 4.8 | 11.3 | 0.00 | 0.05 | 0.05 | 54 | 1018.0 |
| 20260504172805 | 19 | 267 | 4.8 | 12.9 | 0.00 | 0.05 | 0.05 | 55 | 1018.0 |
| 20260504172533 | 18 | 195 | 4.8 | 14.5 | 0.00 | 0.05 | 0.05 | 56 | 1018.2 |
| 20260504171804 | 18 | 184 | 4.8 | 14.5 | 0.00 | 0.05 | 0.05 | 53 | 1018.2 |
| 20260504171307 | 18 | 141 | 4.8 | 9.7 | 0.00 | 0.05 | 0.05 | 53 | 1018.2 |
| 20260504170802 | 18 | 181 | 4.8 | 9.7 | 0.00 | 0.05 | 0.05 | 56 | 1018.7 |
| 20260504170303 | 18 | 172 | 4.8 | 9.7 | 0.00 | 0.05 | 0.05 | 56 | 1018.7 |
| 20260504160242 | 14 | 273 | 3.2 | 8.0 | 0.00 | 0.05 | 0.05 | 72 | 1019.8 |
| 20260504150736 | 10 | 2 | 3.2 | 6.4 | 0.05 | 0.05 | 0.05 | 91 | 1020.3 |
| 20260504150230 | 10 | 354 | 3.2 | 6.4 | 0.05 | 0.05 | 0.05 | 89 | 1020.3 |
| 20260504141139 | 10 | 13 | 1.6 | 4.8 | 0.00 | 0.00 | 0.00 | 80 | 1021.5 |
| 20260504140635 | 10 | 13 | 1.6 | 4.8 | 0.00 | 0.00 | 0.00 | 81 | 1021.5 |
| 20260504140134 | 10 | 14 | 1.6 | 4.8 | 0.00 | 0.00 | 0.00 | 80 | 1021.5 |
| 20260504130516 | 8 | 13 | 0.0 | 3.2 | 0.00 | 0.00 | 0.00 | 83 | 1020.6 |
| 20260504110231 | 5 | 1 | 3.2 | 4.8 | 0.00 | 0.00 | 0.00 | 93 | 1019.2 |
| 20260504100607 | 5 | 13 | 0.0 | 3.2 | 0.00 | 0.00 | 0.00 | 89 | 1019.5 |
| 20260504081831 | 6 | 2 | 1.6 | 6.4 | 0.00 | 0.00 | 0.00 | 86 | 1019.5 |
| 20260504081319 | 6 | 3 | 1.6 | 6.4 | 0.00 | 0.00 | 0.00 | 86 | 1019.5 |
| 20260504080818 | 6 | 3 | 1.6 | 4.8 | 0.00 | 0.00 | 0.00 | 86 | 1019.3 |
| 20260504080313 | 6 | 3 | 1.6 | 3.2 | 0.00 | 0.00 | 0.00 | 85 | 1019.3 |
| 20260504070144 | 7 | 5 | 3.2 | 6.4 | 0.00 | 0.00 | 0.00 | 81 | 1019.3 |
| 20260504050541 | 8 | 358 | 3.2 | 6.4 | 0.00 | 0.00 | 0.00 | 73 | 1019.6 |
| 20260504050528 | 8 | 6 | 3.2 | 6.4 | 0.00 | 0.00 | 0.00 | 73 | 1019.6 |
| 20260504045800 | 8 | 15 | 3.2 | 6.4 | 0.00 | 0.00 | 0.00 | 72 | 1019.5 |
| 20260504045253 | 8 | 15 | 3.2 | 6.4 | 0.00 | 0.00 | 0.00 | 71 | 1019.5 |
| 20260504044523 | 9 | 15 | 3.2 | 4.8 | 0.00 | 0.00 | 0.00 | 71 | 1019.5 |
| 20260504044006 | 9 | 15 | 3.2 | 4.8 | 0.00 | 0.00 | 0.00 | 70 | 1019.4 |
| 20260504043455 | 9 | 15 | 3.2 | 4.8 | 0.00 | 0.00 | 0.00 | 70 | 1019.4 |
| 20260504042955 | 9 | 15 | 3.2 | 6.4 | 0.00 | 0.00 | 0.00 | 69 | 1019.4 |
| 20260504042716 | 9 | 15 | 3.2 | 6.4 | 0.00 | 0.00 | 0.00 | 69 | 1019.4 |
| 20260504042222 | 9 | 15 | 3.2 | 4.8 | 0.00 | 0.00 | 0.00 | 69 | 1019.4 |
| 20260504041453 | 9 | 15 | 1.6 | 4.8 | 0.00 | 0.00 | 0.00 | 68 | 1019.4 |
| 20260504040953 | 9 | 15 | 1.6 | 3.2 | 0.00 | 0.00 | 0.00 | 68 | 1019.4 |
| 20260504040453 | 9 | 15 | 1.6 | 4.8 | 0.00 | 0.00 | 0.00 | 67 | 1019.4 |
| 20260504040213 | 10 | 15 | 1.6 | 4.8 | 0.00 | 0.00 | 0.00 | 67 | 1019.4 |
| 20260504035453 | 10 | 15 | 4.8 | 4.8 | 0.00 | 0.00 | 0.00 | 66 | 1019.3 |
| 20260504034950 | 10 | 15 | 4.8 | 8.0 | 0.00 | 0.00 | 0.00 | 66 | 1019.3 |
| 20260504034443 | 10 | 15 | 3.2 | 8.0 | 0.00 | 0.00 | 0.00 | 65 | 1019.3 |
| 20260504033941 | 10 | 11 | 3.2 | 8.0 | 0.00 | 0.00 | 0.00 | 64 | 1019.3 |
| 20260504033703 | 10 | 338 | 1.6 | 6.4 | 0.00 | 0.00 | 0.00 | 64 | 1019.3 |
| 20260504032938 | 10 | 338 | 1.6 | 3.2 | 0.00 | 0.00 | 0.00 | 64 | 1019.3 |
| 20260504032438 | 10 | 338 | 3.2 | 4.8 | 0.00 | 0.00 | 0.00 | 62 | 1019.2 |
| 20260504031933 | 10 | 338 | 3.2 | 4.8 | 0.00 | 0.00 | 0.00 | 61 | 1019.2 |
| 20260504031431 | 10 | 338 | 3.2 | 4.8 | 0.00 | 0.00 | 0.00 | 60 | 1019.2 |
| 20260504030930 | 10 | 338 | 3.2 | 4.8 | 0.00 | 0.00 | 0.00 | 60 | 1019.2 |
| 20260504030423 | 10 | 338 | 3.2 | 6.4 | 0.00 | 0.00 | 0.00 | 60 | 1019.2 |
| 20260504025921 | 11 | 338 | 3.2 | 6.4 | 0.00 | 0.00 | 0.00 | 61 | 1019.2 |
| 20260504025653 | 11 | 335 | 3.2 | 4.8 | 0.00 | 0.00 | 0.00 | 60 | 1019.1 |
| 20260504024858 | 11 | 335 | 3.2 | 6.4 | 0.00 | 0.00 | 0.00 | 59 | 1019.1 |
| 20260504024358 | 11 | 335 | 4.8 | 6.4 | 0.00 | 0.00 | 0.00 | 58 | 1019.1 |
| 20260504023858 | 11 | 335 | 4.8 | 6.4 | 0.00 | 0.00 | 0.00 | 60 | 1019.1 |
| 20260504023358 | 11 | 335 | 3.2 | 6.4 | 0.00 | 0.00 | 0.00 | 59 | 1019.1 |
| 20260504022851 | 11 | 332 | 3.2 | 6.4 | 0.00 | 0.00 | 0.00 | 57 | 1019.1 |
| 20260504022351 | 11 | 296 | 1.6 | 4.8 | 0.00 | 0.00 | 0.00 | 58 | 1019.0 |
| 20260504021851 | 11 | 234 | 1.6 | 4.8 | 0.00 | 0.00 | 0.00 | 57 | 1019.0 |
| 20260504021346 | 11 | 234 | 0.0 | 1.6 | 0.00 | 0.00 | 0.00 | 56 | 1019.0 |
| 20260504020845 | 11 | 234 | 0.0 | 1.6 | 0.00 | 0.00 | 0.00 | 55 | 1019.0 |
| 20260504020338 | 11 | 234 | 0.0 | 1.6 | 0.00 | 0.00 | 0.00 | 55 | 1019.0 |
| 20260504015838 | 11 | 235 | 0.0 | 1.6 | 0.00 | 0.00 | 0.00 | 55 | 1019.0 |
| 20260504015338 | 11 | 235 | 0.0 | 1.6 | 0.00 | 0.00 | 0.00 | 55 | 1018.9 |
| 20260504014828 | 12 | 235 | 0.0 | 3.2 | 0.00 | 0.00 | 0.00 | 55 | 1018.9 |
| 20260504014328 | 12 | 234 | 0.0 | 3.2 | 0.00 | 0.00 | 0.00 | 55 | 1018.9 |
| 20260504013813 | 12 | 235 | 0.0 | 3.2 | 0.00 | 0.00 | 0.00 | 54 | 1018.8 |
| 20260504013313 | 12 | 229 | 0.0 | 3.2 | 0.00 | 0.00 | 0.00 | 54 | 1018.8 |
| 20260504012811 | 12 | 229 | 0.0 | 3.2 | 0.00 | 0.00 | 0.00 | 53 | 1018.8 |
| 20260504012254 | 12 | 229 | 0.0 | 3.2 | 0.00 | 0.00 | 0.00 | 53 | 1018.9 |
| 20260504012222 | 12 | 229 | 0.0 | 1.6 | 0.00 | 0.00 | 0.00 | 52 | 1018.9 |
| 20260504011514 | 12 | 229 | 0.0 | 0.0 | 0.00 | 0.00 | 0.00 | 51 | 1018.9 |
| 20260504010705 | 12 | 229 | 0.0 | 1.6 | 0.00 | 0.00 | 0.00 | 51 | 1018.9 |
| 20260504010405 | 12 | 229 | 0.0 | 3.2 | 0.00 | 0.00 | 0.00 | 50 | 1018.9 |
| 20260504005910 | 13 | 229 | 0.0 | 3.2 | 0.00 | 0.00 | 0.00 | 51 | 1018.7 |
| 20260504005121 | 13 | 229 | 0.0 | 3.2 | 0.00 | 0.00 | 0.00 | 50 | 1018.7 |
| 20260504004621 | 13 | 229 | 3.2 | 3.2 | 0.00 | 0.00 | 0.00 | 50 | 1018.7 |
| 20260504004045 | 13 | 229 | 3.2 | 4.8 | 0.00 | 0.00 | 0.00 | 49 | 1018.6 |
| 20260504003545 | 13 | 229 | 3.2 | 6.4 | 0.00 | 0.00 | 0.00 | 49 | 1018.6 |
| 20260504003027 | 14 | 253 | 3.2 | 6.4 | 0.00 | 0.00 | 0.00 | 49 | 1018.6 |
| 20260504002530 | 14 | 242 | 4.8 | 8.0 | 0.00 | 0.00 | 0.00 | 48 | 1018.2 |
| 20260504002020 | 15 | 202 | 4.8 | 8.0 | 0.00 | 0.00 | 0.00 | 46 | 1018.2 |
| 20260504001518 | 15 | 210 | 4.8 | 11.3 | 0.00 | 0.00 | 0.00 | 45 | 1018.2 |
| 20260504001018 | 15 | 199 | 4.8 | 11.3 | 0.00 | 0.00 | 0.00 | 44 | 1018.3 |
| 20260504000954 | 15 | 204 | 6.4 | 9.7 | 0.00 | 0.00 | 0.00 | 43 | 1018.3 |
| 20260504000018 | 15 | 200 | 6.4 | 9.7 | 0.00 | 0.00 | 0.00 | 43 | 1018.3 |
| 20260503235518 | 16 | 199 | 4.8 | 9.7 | 0.00 | 0.00 | 0.00 | 42 | 1018.5 |
| 20260503235014 | 16 | 213 | 4.8 | 9.7 | 0.00 | 0.00 | 0.00 | 42 | 1018.5 |
| 20260503234514 | 16 | 192 | 6.4 | 12.9 | 0.00 | 0.00 | 0.00 | 40 | 1018.5 |
| 20260503234506 | 16 | 200 | 6.4 | 12.9 | 0.00 | 0.00 | 0.00 | 40 | 1018.3 |
| 20260503233513 | 16 | 189 | 6.4 | 12.9 | 0.00 | 0.00 | 0.00 | 40 | 1018.3 |
| 20260503233013 | 17 | 204 | 6.4 | 12.9 | 0.00 | 0.00 | 0.00 | 39 | 1018.3 |
| 20260503232513 | 17 | 189 | 4.8 | 12.9 | 0.00 | 0.00 | 0.00 | 39 | 1018.7 |
| 20260503232012 | 17 | 192 | 4.8 | 11.3 | 0.00 | 0.00 | 0.00 | 39 | 1018.7 |
| 20260503231513 | 17 | 189 | 6.4 | 11.3 | 0.00 | 0.00 | 0.00 | 40 | 1018.7 |
| 20260503231013 | 17 | 181 | 6.4 | 14.5 | 0.00 | 0.00 | 0.00 | 39 | 1018.7 |
| 20260503230512 | 17 | 188 | 6.4 | 14.5 | 0.00 | 0.00 | 0.00 | 38 | 1018.7 |
| 20260503230013 | 17 | 186 | 6.4 | 14.5 | 0.00 | 0.00 | 0.00 | 38 | 1018.7 |
| 20260503225513 | 17 | 209 | 8.0 | 14.5 | 0.00 | 0.00 | 0.00 | 38 | 1018.8 |
| 20260503225010 | 17 | 224 | 8.0 | 14.5 | 0.00 | 0.00 | 0.00 | 37 | 1018.8 |
| 20260503224510 | 17 | 217 | 6.4 | 16.1 | 0.00 | 0.00 | 0.00 | 37 | 1018.8 |
| 20260503224010 | 17 | 172 | 6.4 | 16.1 | 0.00 | 0.00 | 0.00 | 36 | 1018.9 |
| 20260503223503 | 17 | 208 | 6.4 | 17.7 | 0.00 | 0.00 | 0.00 | 36 | 1018.9 |
| 20260503223002 | 17 | 257 | 6.4 | 17.7 | 0.00 | 0.00 | 0.00 | 35 | 1018.9 |
| 20260503222502 | 17 | 186 | 6.4 | 16.1 | 0.00 | 0.00 | 0.00 | 36 | 1019.0 |
| 20260503222003 | 17 | 189 | 6.4 | 16.1 | 0.00 | 0.00 | 0.00 | 34 | 1019.0 |
| 20260503221502 | 17 | 179 | 6.4 | 16.1 | 0.00 | 0.00 | 0.00 | 35 | 1019.0 |
| 20260503221236 | 17 | 193 | 6.4 | 16.1 | 0.00 | 0.00 | 0.00 | 37 | 1019.0 |
| 20260503220503 | 17 | 204 | 6.4 | 16.1 | 0.00 | 0.00 | 0.00 | 35 | 1019.0 |
| 20260503220004 | 17 | 255 | 6.4 | 16.1 | 0.00 | 0.00 | 0.00 | 36 | 1019.0 |
| 20260503215503 | 17 | 214 | 6.4 | 16.1 | 0.00 | 0.00 | 0.00 | 35 | 1019.2 |
| 20260503215004 | 17 | 190 | 6.4 | 14.5 | 0.00 | 0.00 | 0.00 | 36 | 1019.2 |
| 20260503214504 | 17 | 203 | 6.4 | 14.5 | 0.00 | 0.00 | 0.00 | 37 | 1019.2 |